Skip Page Navigation
NASA JPL Caltech
NASA Logo - Jet Propulsion Laboratory + View the NASA Portal
+ Near-Earth Object (NEO) Program
Search JPL
JPL Home Earth Solar System Stars & Galaxies Technology
JPL Solar System Dynamics
BODIES ORBITS EPHEMERIDES TOOLS PHYSICAL DATA DISCOVERY FAQ SITE MAP
JPL Small-Body Database Browser
Search: [ help ]  
7827 (1992 QE2)
Classification: Main-belt Asteroid          SPK-ID: 2007827
Ephemeris | Orbit Diagram | Orbital Elements | Physical Parameters | Discovery Circumstances | Close-Approach Data ]

[ show orbit diagram ]
Orbital Elements at Epoch 2457000.5 (2014-Dec-09.0) TDB
Reference: JPL 13 (heliocentric ecliptic J2000)
 Element Value Uncertainty (1-sigma)   Units 
e .2417686803509934 7.9967e-08  
a 3.031272568979364 3.2911e-08 AU
q 2.298405800193057 2.5215e-07 AU
i 13.79437717978894 8.5985e-06 deg
node 179.7336551545174 2.4576e-05 deg
peri 168.879233665077 2.8469e-05 deg
M 77.15820747980396 1.1621e-05 deg
tp 2456587.342596009185
(2013-Oct-21.84259601)
6.2291e-05 JED
period 1927.684303392156
5.28
3.1393e-05
8.595e-08
d
yr
n .1867525711375593 3.0414e-09 deg/d
Q 3.76413933776567 4.0867e-08 AU
  Orbit Determination Parameters
   # obs. used (total)      861  
   data-arc span      9484 days (25.97 yr)  
   first obs. used      1989-02-05  
   last obs. used      2015-01-24  
   planetary ephem.      DE431  
   SB-pert. ephem.      SB431-BIG16  
   condition code      0  
   fit RMS      .48159  
   data source      ORB  
   producer      Otto Matic  
   solution date      2015-Feb-04 13:21:05  

Additional Information
 Earth MOID = 1.29455 AU 
 T_jup = 3.155 
[ show covariance matrix ]

Ephemeris | Orbit Diagram | Orbital Elements | Physical Parameters | Discovery Circumstances | Close-Approach Data ]

Physical Parameter Table
Parameter Symbol Value Units Sigma Reference Notes
absolute magnitude H 13.0 mag n/a MPO319183  

7827 (1992 QE2)          Discovered 1992-Aug-22 by Holt, H. E. at Palomar (675)
Reference: DISCOVERY.DBLast Updated: 2003-08-29

[ show close-approach data ]
Alternate Designations
 1992 QE2 = 1971 SA1 = 1987 SD22 = 1989 CV3 = 1990 EU3 = 1990 GM 
Ephemeris | Orbit Diagram | Orbital Elements | Physical Parameters | Discovery Circumstances | Close-Approach Data ]
ABOUT SSD CREDITS/AWARDS PRIVACY/COPYRIGHT GLOSSARY LINKS
FirstGov 2015-Mar-03 12:43 UT
(server date/time)  
NASA Home Page
Site Manager:   Ryan S. Park
Webmaster  Alan B. Chamberlin